This demonstration page uses our WeatherBlox Daily Observations layout. Learn more.

Left ArrowRight Arrow

Hourly Observations for December 1, 2019

Temp ( °F °C ) Dew Point ( °F °C ) Humidity (%) Winds ( mph kmh ) Pressure ( in mb ) Visibility ( mi km ) Precip ( " mm )
12:53 am 00:53 Mostly Cloudy 31 -0.6 23 -5 72 72 NW 33 54 29.72 1007 10 16 0.00 0.00
1:00 am 01:00 Mostly Cloudy 30 -1 23 -5 75 75 NW 35 56 29.80 1009 10 16 0.00 0.00
1:13 am 01:13 Cloudy 30 -1.1 23 -5 75 75 NW 33 54 29.80 1009 10 16 0.00 0.00
1:21 am 01:21 Cloudy 30 -1.1 22 -5.6 72 72 NNW 35 56 29.80 1009 10 16 0.00 0.00
1:53 am 01:53 Mostly Cloudy 30 -1.1 22 -5.6 72 72 NNW 35 56 29.76 1008 10 16 0.00 0.00
2:53 am 02:53 Cloudy 29 -1.7 21 -6.1 72 72 NNW 29 46 29.80 1009 10 16 0.00 0.00
3:25 am 03:25 Partly Cloudy 29 -1.7 20 -6.7 69 69 NNW 30 48 29.85 1011 10 16 0.00 0.00
3:53 am 03:53 Mostly Cloudy 29 -1.7 21 -6.1 72 72 NNW 33 54 29.83 1010 10 16 0.00 0.00
4:53 am 04:53 Cloudy 29 -1.7 20 -6.7 69 69 NNW 28 44 29.85 1011 10 16 0.00 0.00
5:53 am 05:53 Mostly Cloudy 29 -1.7 20 -6.7 69 69 NW 32 52 29.88 1012 10 16 0.00 0.00
6:21 am 06:21 Partly Cloudy 29 -1.7 21 -6.1 72 72 NW 26 43 29.91 1013 10 16 0.00 0.00
6:30 am 06:30 Mostly Cloudy 28 -2 21 -6 74 74 NW 33 54 29.94 1014 10 16 0.00 0.00
6:53 am 06:53 Mostly Cloudy 29 -1.7 21 -6.1 72 72 NNW 25 41 29.92 1013 10 16 0.00 0.00
7:53 am 07:53 Cloudy 29 -1.7 21 -6.1 72 72 NNW 29 46 29.96 1015 10 16 0.00 0.00
8:53 am 08:53 Cloudy 29 -1.7 21 -6.1 72 72 NNW 29 46 29.99 1016 10 16 0.00 0.00
9:53 am 09:53 Cloudy 30 -1.1 22 -5.6 72 72 NNW 30 48 30.04 1017 10 16 0.00 0.00
10:46 am 10:46 Cloudy 32 0 23 -5 69 69 NNW 29 46 30.09 1019 10 16 0.00 0.00
10:53 am 10:53 Cloudy 32 0 23 -5 69 69 NNW 26 43 30.05 1018 10 16 0.00 0.00
11:11 am 11:11 Cloudy 31 -0.6 22 -5.6 69 69 NNW 33 54 30.09 1019 10 16 0.00 0.00
11:53 am 11:53 Cloudy 32 0 23 -5 69 69 NNW 31 50 30.05 1018 10 16 0.00 0.00
12:53 pm 12:53 Cloudy 33 0.6 23 -5 66 66 NW 24 39 30.06 1018 10 16 0.00 0.00
1:06 pm 13:06 Mostly Cloudy 34 1 23 -5 65 65 NNW 29 46 30.09 1019 10 16 0.00 0.00
1:53 pm 13:53 Cloudy 33 0.6 22 -5.6 64 64 NNW 23 37 30.10 1019 10 16 0.00 0.00
2:41 pm 14:41 Cloudy 32 0 23 -5 69 69 NNW 21 33 30.15 1021 10 16 0.00 0.00
2:53 pm 14:53 Cloudy 32 0 22 -5.6 66 66 NNW 24 39 30.14 1021 10 16 0.00 0.00
3:53 pm 15:53 Mostly Cloudy 33 0.6 23 -5 66 66 NNW 28 44 30.15 1021 10 16 0.00 0.00
4:01 pm 16:01 Mostly Sunny 32 0 22 -5.6 66 66 NNW 26 43 30.18 1022 10 16 0.00 0.00
4:53 pm 16:53 Mostly Sunny 31 -0.6 22 -5.6 69 69 NNW 18 30 30.20 1023 10 16 0.00 0.00
5:53 pm 17:53 Clear 30 -1.1 20 -6.7 66 66 N 12 19 30.21 1023 10 16 0.00 0.00
6:53 pm 18:53 Clear 28 -2.2 20 -6.7 72 72 NNW 13 20 30.22 1023 10 16 0.00 0.00
7:53 pm 19:53 Clear 27 -2.8 20 -6.7 75 75 NNW 10 17 30.24 1024 10 16 0.00 0.00
8:53 pm 20:53 Clear 25 -3.9 19 -7.2 78 78 WNW 12 19 30.27 1025 10 16 0.00 0.00
9:53 pm 21:53 Clear 25 -3.9 20 -6.7 81 81 NNW 10 17 30.26 1025 10 16 0.00 0.00
10:53 pm 22:53 Clear 23 -5 19 -7.2 85 85 NW 9 15 30.27 1025 10 16 0.00 0.00
11:53 pm 23:53 Clear 24 -4.4 19 -7.2 81 81 N 9 15 30.26 1025 10 16 0.00 0.00

Powered by AerisWeather